Location: Atbuku
(36.4936°N, 30.4362°E)
Time: 21:52:24
(UTC+00:00)

Cosmos 1867 - Pass Details

Date: 11 December 2025
Orbit: 777 x 797 km, 65.0° (Epoch: 12 January)

Event Time Altitude Azimuth Distance (km) Brightness Sun altitude
Rises 15:29:56 0° 335° (NNW) 3,304 6.8 -9.4°
Reaches altitude 10° 15:32:27 10° 341° (NNW) 2,371 6.0 -9.8°
Maximum altitude 15:37:45 50° 56° (NE) 1,003 3.7 -10.8°
Drops below altitude 10° 15:43:00 10° 132° (SE) 2,352 5.8 -11.8°
Sets 15:45:29 0° 137° (SE) 3,275 6.5 -12.3°
